Location: Newark
(47.5833°N, 8.1500°E)
Time: 08:53:57
(UTC+00:00)

Vanguard 1 - Pass Details

Date: 03 November 2020
Orbit: 650 x 3833 km, 34.2° (Epoch: 29 November)

Event Time Altitude Azimuth Distance (km) Brightness Sun altitude
Rises 13:41:36 0° 263° (W) 7,540 15.3 18.7°
Reaches altitude 10° 13:46:33 10° 259° (W) 6,730 15.2 18.1°
Maximum altitude 14:08:42 55° 191° (S) 4,166 14.0 15.6°
Drops below altitude 10° 14:26:47 10° 121° (ESE) 5,619 13.8 13.4°
Sets 14:30:29 0° 116° (ESE) 6,284 14.0 12.9°
